Weather History for KASD - May, 2014

Change the Weather History Date:

Saturday, May 17, 2014

  Actual Average (KNEW) Record (KNEW)
Temperature  
Mean Temperature 70 °F 77 °F  
Max Temperature 82 °F 86 °F 92 °F (1988)
Min Temperature 59 °F 69 °F 51 °F (1967)
Degree Days  
Heating Degree Days 0 0  
Month to date heating degree days 0  
Since 1 July heating degree days 1279  
Cooling Degree Days 5 12  
Month to date cooling degree days 172  
Year to date cooling degree days 429  
Growing Degree Days 20 (Base 50)    
Moisture  
Dew Point 56 °F    
Average Humidity 59    
Maximum Humidity 90    
Minimum Humidity 33    
Precipitation  
Precipitation 0.00 in 0.14 in 1.55 in (2004)
Month to date precipitation 2.37  
Year to date precipitation 21.98  
Snow  
Snow 0.00 in - - ()
Month to date snowfall  
Since 1 July snowfall  
Snow Depth -    
Sea Level Pressure  
Sea Level Pressure 30.14 in    
Wind  
Wind Speed 5 mph (SSW)    
Max Wind Speed 13 mph    
Max Gust Speed 18 mph    
Visibility 10 miles    
Events      
T = Trace of Precipitation, MM = Missing Value Source: NWS Daily Summary

Daily Weather History Graph

Daily Weather History Graph

Search for Another Location

Airport or City:

Trip Planner

Search our weather history database for the weather conditions in past years. The results will help you decide how hot, cold, wet, or windy it might be!

Date:

Astronomy

May. 17, 2014 Rise Set
Actual Time 6:04 AM CDT 7:47 PM CDT
Civil Twilight 5:37 AM CDT 8:14 PM CDT
Nautical Twilight 5:05 AM CDT 8:45 PM CDT
Astronomical Twilight 4:32 AM CDT 9:19 PM CDT
Moon 10:50 PM CDT (5/17) 8:46 AM CDT (5/17)
Length of Visible Light 14h 36m
Length of Day
13h 43m
Waning Gibbous, 89% of the Moon is Illuminated
May 17
Waning Gibbous
May 21
Last Quarter
May 28
New
Jun 5
First Quarter
Jun 12
Full

Hourly Weather History & Observations

Time (CDT) Temp. Heat Index Dew Point Humidity Pressure Visibility Wind Dir Wind Speed Gust Speed Precip Events Conditions
12:53 AM 68.0 °F - 54.0 °F 61% 30.12 in 10.0 mi SW 4.6 mph - N/A   Clear
1:53 AM 66.0 °F - 54.0 °F 65% 30.11 in 10.0 mi SW 4.6 mph - N/A   Clear
2:53 AM 61.0 °F - 55.0 °F 81% 30.12 in 10.0 mi Calm Calm - N/A   Clear
3:53 AM 64.9 °F - 57.0 °F 75% 30.12 in 10.0 mi SSW 4.6 mph - N/A   Clear
4:53 AM 64.9 °F - 57.0 °F 75% 30.11 in 10.0 mi SSW 3.5 mph - N/A   Clear
5:53 AM 59.0 °F - 55.9 °F 90% 30.13 in 10.0 mi Calm Calm - N/A   Clear
6:53 AM 59.0 °F - 55.9 °F 90% 30.16 in 10.0 mi Calm Calm - N/A   Clear
7:53 AM 68.0 °F - 61.0 °F 78% 30.17 in 10.0 mi Calm Calm - N/A   Clear
8:53 AM 73.0 °F - 59.0 °F 61% 30.17 in 10.0 mi SW 4.6 mph - N/A   Clear
9:53 AM 75.9 °F - 55.9 °F 50% 30.17 in 10.0 mi SW 6.9 mph - N/A   Clear
10:53 AM 75.9 °F - 55.9 °F 50% 30.17 in 10.0 mi Variable 3.5 mph - N/A   Clear
11:53 AM 78.1 °F - 55.9 °F 46% 30.17 in 10.0 mi SSW 8.1 mph - N/A   Clear
12:53 PM 78.1 °F - 57.0 °F 48% 30.16 in 10.0 mi SW 12.7 mph - N/A   Clear
1:53 PM 80.1 °F 80.2 °F 55.9 °F 43% 30.14 in 10.0 mi South 10.4 mph 18.4 mph N/A   Clear
2:53 PM 81.0 °F 81.3 °F 59.0 °F 47% 30.12 in 10.0 mi SW 11.5 mph 17.3 mph N/A   Partly Cloudy
3:53 PM 80.1 °F 80.1 °F 55.0 °F 42% 30.11 in 10.0 mi SSW 9.2 mph - N/A   Scattered Clouds
4:53 PM 81.0 °F - 48.9 °F 33% 30.10 in 10.0 mi SW 9.2 mph - N/A   Clear
5:53 PM 80.1 °F - 51.1 °F 36% 30.10 in 10.0 mi SW 6.9 mph - N/A   Clear
6:53 PM 78.1 °F - 53.1 °F 42% 30.11 in 10.0 mi SW 5.8 mph - N/A   Scattered Clouds
7:53 PM 75.9 °F - 54.0 °F 46% 30.12 in 10.0 mi South 8.1 mph - N/A   Scattered Clouds
8:53 PM 72.0 °F - 57.0 °F 59% 30.13 in 10.0 mi South 6.9 mph - N/A   Clear
9:53 PM 72.0 °F - 57.0 °F 59% 30.15 in 10.0 mi South 6.9 mph - N/A   Clear
10:53 PM 70.0 °F - 57.9 °F 65% 30.15 in 10.0 mi South 6.9 mph - N/A   Clear
11:53 PM 70.0 °F - 59.0 °F 68% 30.15 in 10.0 mi South 5.8 mph - N/A   Clear